SL-14 DEB, 45289

Orbit data source: Space-Track

SL-14 DEB, 45289 is space debris in LEO originally from a launch on Thu, 15 Aug 1991 UTC launched from the Plesetsk Missile And Space Complex (PKMTR). Debris objects in space refer to the collection of defunct objects orbiting the Earth. Examples of debris include non-operational satellites, rocket bodies, and fragments generated from explosions, collisions, or faulty payload assembly.

Loading next visibility...
Identifier
45289, 1991-056AB
Orbit
LEO
Country
Flag of CISCIS
Related business
Manufacturer
Unknown
Mission
Spacecraft
Bus & Motor
Unknown
Mass
Unknown
Launch date (UTC)
1991-08-15 (34 years ago)
Launch vehicle
Unknown
Launch site
Plesetsk Missile And Space Complex (PKMTR)
Object type
Payload
Rocket body
Debris
Shape & HBR
Unknown
Radar Cross Section
Small (<0.1 m²)

Expand to show TLE details & history
Last TLE update: 19 hours ago

TLE from 19 hours ago
0 SL-14 DEB
1 45289U 91056AB  25242.21824970  .00000189  00000-0  69875-3 0  9993
2 45289  82.5339  65.8459 0178027 182.3333 177.6960 12.83071844258947
Epoch: 2025-08-30T05:14Z
TLE epoch observation values (Epoch: 2025-08-30T05:14:16.774Z)
Latitude
0.00007°
Longitude
8.62032°
Altitude
1,469.031 km
Speed
7.065 km/s
True Right ascension
04h 23m 23s
True Declination
0° 00' 00"
Sunlit
Object was in daylight at epoch
Visualization orbit readout
Latitude
Unknown
Longitude
Unknown
Altitude
Unknown
Speed
Unknown
Apparent Right ascension
Unknown
Apparent Declination
Unknown
Sunlit
N/A
Visualization observer readout
Local Sidereal Time
15:54:15
Azimuth
Unknown
Elevation
Unknown
Doppler factor
Unknown
Orbital elements
Apogee altitude
1,463.598 km
Perigee altitude
1,189.274 km
Semi-major axis
7,704.573 km
Eccentricity
0.0178
Inclination
82.5339°
RAAN
65.8459°
Arg. of periapsis
182.3333°
True anomaly
177.77623°
Mean anomaly
177.696°
Eccentric anomaly
177.73629°
Mean motion
3.20937 °/min
Orbital period
112.17 mins
BSTAR
0.00069875
Loading maneuver chart data...
Computing Atmospheric mass density...
Loading historical data...
Loading historical data...
Loading historical data...
Loading historical data...
Loading historical data...
Loading historical data...
Loading historical data...

Documentation

Showing up to 5 results
|